| time (UTC) | temp C | wind direction | speed KPH | gust KPH | rain 1hr cm | rain 24hr cm | rain mn cm | humidity % | barometer mb |
| 20260905205059 | 34 | 11 | 0.0 | 3.2 | 0.00 | 0.00 | 0.00 | 18 | 1012.7 |
| 20260905204559 | 33 | 11 | 1.6 | 8.0 | 0.00 | 0.00 | 0.00 | 30 | 1012.8 |
| 20260905204058 | 33 | 11 | 3.2 | 8.0 | 0.00 | 0.00 | 0.00 | 41 | 1013.0 |
| 20260905203558 | 33 | 98 | 1.6 | 4.8 | 0.00 | 0.00 | 0.00 | 29 | 1013.0 |
| 20260905203057 | 33 | 99 | 0.0 | 3.2 | 0.00 | 0.00 | 0.00 | 18 | 1013.1 |
| 20260905202557 | 34 | 99 | 0.0 | 3.2 | 0.00 | 0.00 | 0.00 | 33 | 1013.0 |
| 20260905202101 | 34 | 99 | 1.6 | 4.8 | 0.00 | 0.00 | 0.00 | 43 | 1013.4 |
| 20260905202057 | 34 | 99 | 0.0 | 4.8 | 0.00 | 0.00 | 0.00 | 36 | 1013.1 |
| 20260905201057 | 35 | 50 | 1.6 | 6.4 | 0.00 | 0.00 | 0.00 | 49 | 1013.4 |
| 20260905200555 | 35 | 51 | 1.6 | 6.4 | 0.00 | 0.00 | 0.00 | 50 | 1013.4 |
| 20260905200053 | 35 | 355 | 1.6 | 6.4 | 0.00 | 0.00 | 0.00 | 46 | 1013.4 |
| 20260905195553 | 35 | 355 | 1.6 | 6.4 | 0.00 | 0.00 | 0.00 | 51 | 1013.4 |
| 20260905195053 | 35 | 49 | 1.6 | 4.8 | 0.00 | 0.00 | 0.00 | 49 | 1013.5 |
| 20260905194553 | 35 | 25 | 3.2 | 6.4 | 0.00 | 0.00 | 0.00 | 49 | 1013.5 |
| 20260905194053 | 35 | 26 | 3.2 | 8.0 | 0.00 | 0.00 | 0.00 | 51 | 1013.5 |
| 20260905193551 | 35 | 332 | 3.2 | 8.0 | 0.00 | 0.00 | 0.00 | 51 | 1013.5 |
| 20260905193051 | 35 | 28 | 3.2 | 6.4 | 0.00 | 0.00 | 0.00 | 51 | 1013.5 |
| 20260905192551 | 35 | 82 | 1.6 | 4.8 | 0.00 | 0.00 | 0.00 | 48 | 1013.6 |
| 20260905192054 | 35 | 42 | 1.6 | 6.4 | 0.00 | 0.00 | 0.00 | 47 | 1013.7 |
| 20260905192050 | 35 | 14 | 1.6 | 6.4 | 0.00 | 0.00 | 0.00 | 51 | 1013.7 |
| 20260905191055 | 35 | 63 | 1.6 | 8.0 | 0.00 | 0.00 | 0.00 | 51 | 1013.8 |
| 20260905191051 | 35 | 31 | 1.6 | 8.0 | 0.00 | 0.00 | 0.00 | 51 | 1013.7 |
| 20260905190050 | 35 | 42 | 1.6 | 4.8 | 0.00 | 0.00 | 0.00 | 50 | 1013.9 |
| 20260905185550 | 35 | 13 | 3.2 | 6.4 | 0.00 | 0.00 | 0.00 | 48 | 1014.1 |
| 20260905185050 | 35 | 221 | 3.2 | 8.0 | 0.00 | 0.00 | 0.00 | 50 | 1014.1 |
| 20260905184550 | 35 | 30 | 1.6 | 8.0 | 0.00 | 0.00 | 0.00 | 49 | 1014.2 |
| 20260905184051 | 35 | 251 | 1.6 | 8.0 | 0.00 | 0.00 | 0.00 | 49 | 1014.2 |
| 20260905183551 | 34 | 54 | 3.2 | 6.4 | 0.00 | 0.00 | 0.00 | 51 | 1014.3 |
| 20260905183051 | 34 | 311 | 3.2 | 8.0 | 0.00 | 0.00 | 0.00 | 45 | 1014.3 |
| 20260905182551 | 34 | 236 | 3.2 | 8.0 | 0.00 | 0.00 | 0.00 | 49 | 1014.4 |
| 20260905182051 | 34 | 218 | 3.2 | 8.0 | 0.00 | 0.00 | 0.00 | 50 | 1014.5 |
| 20260905181551 | 34 | 199 | 3.2 | 6.4 | 0.00 | 0.00 | 0.00 | 49 | 1014.5 |
| 20260905181051 | 34 | 313 | 1.6 | 6.4 | 0.00 | 0.00 | 0.00 | 48 | 1014.6 |
| 20260905180551 | 34 | 154 | 1.6 | 6.4 | 0.00 | 0.00 | 0.00 | 44 | 1014.7 |
| 20260905180050 | 34 | 161 | 1.6 | 6.4 | 0.00 | 0.00 | 0.00 | 48 | 1014.7 |
| 20260905175551 | 33 | 135 | 1.6 | 8.0 | 0.00 | 0.00 | 0.00 | 37 | 1014.7 |
| 20260905175051 | 33 | 220 | 1.6 | 8.0 | 0.00 | 0.00 | 0.00 | 39 | 1014.8 |
| 20260905174555 | 33 | 130 | 1.6 | 6.4 | 0.00 | 0.00 | 0.00 | 24 | 1014.8 |
| 20260905174551 | 33 | 164 | 1.6 | 3.2 | 0.00 | 0.00 | 0.00 | 39 | 1014.9 |
| 20260905173550 | 33 | 276 | 3.2 | 6.4 | 0.00 | 0.00 | 0.00 | 33 | 1014.8 |
| 20260905173050 | 33 | 254 | 3.2 | 4.8 | 0.00 | 0.00 | 0.00 | 44 | 1014.8 |
| 20260905172556 | 32 | 115 | 3.2 | 12.9 | 0.00 | 0.00 | 0.00 | 35 | 1015.0 |
| 20260905172551 | 33 | 265 | 1.6 | 6.4 | 0.00 | 0.00 | 0.00 | 42 | 1014.9 |
| 20260905172050 | 32 | 208 | 3.2 | 12.9 | 0.00 | 0.00 | 0.00 | 41 | 1015.0 |
| 20260905171054 | 32 | 109 | 3.2 | 11.3 | 0.00 | 0.00 | 0.00 | 46 | 1015.1 |
| 20260905171050 | 32 | 109 | 3.2 | 12.9 | 0.00 | 0.00 | 0.00 | 44 | 1015.1 |
| 20260905170054 | 32 | 150 | 3.2 | 8.0 | 0.00 | 0.00 | 0.00 | 32 | 1015.0 |
| 20260905170050 | 32 | 279 | 3.2 | 8.0 | 0.00 | 0.00 | 0.00 | 36 | 1015.0 |
| 20260905165050 | 32 | 146 | 3.2 | 6.4 | 0.00 | 0.00 | 0.00 | 40 | 1015.0 |
| 20260905164550 | 32 | 263 | 3.2 | 8.0 | 0.00 | 0.00 | 0.00 | 34 | 1015.0 |
| 20260905164054 | 31 | 161 | 1.6 | 8.0 | 0.00 | 0.00 | 0.00 | 37 | 1015.2 |
| 20260905164050 | 32 | 171 | 3.2 | 8.0 | 0.00 | 0.00 | 0.00 | 26 | 1015.2 |
| 20260905163050 | 31 | 158 | 3.2 | 8.0 | 0.00 | 0.00 | 0.00 | 31 | 1015.3 |
| 20260905162550 | 31 | 171 | 3.2 | 8.0 | 0.00 | 0.00 | 0.00 | 36 | 1015.4 |
| 20260905162048 | 31 | 350 | 3.2 | 6.4 | 0.00 | 0.00 | 0.00 | 36 | 1015.4 |
| 20260905161548 | 31 | 190 | 3.2 | 9.7 | 0.00 | 0.00 | 0.00 | 28 | 1015.5 |
| 20260905161048 | 30 | 209 | 3.2 | 9.7 | 0.00 | 0.00 | 0.00 | 38 | 1015.5 |
| 20260905160547 | 30 | 165 | 3.2 | 11.3 | 0.00 | 0.00 | 0.00 | 33 | 1015.5 |
| 20260905160048 | 30 | 262 | 3.2 | 11.3 | 0.00 | 0.00 | 0.00 | 30 | 1015.5 |
| 20260905155548 | 30 | 217 | 1.6 | 6.4 | 0.00 | 0.00 | 0.00 | 12 | 1015.5 |
| 20260905155048 | 30 | 286 | 3.2 | 11.3 | 0.00 | 0.00 | 0.00 | 15 | 1015.5 |
| 20260905154548 | 29 | 300 | 3.2 | 11.3 | 0.00 | 0.00 | 0.00 | 29 | 1015.3 |
| 20260905154048 | 29 | 280 | 4.8 | 11.3 | 0.00 | 0.00 | 0.00 | 22 | 1015.4 |
| 20260905153547 | 29 | 202 | 3.2 | 11.3 | 0.00 | 0.00 | 0.00 | 16 | 1015.5 |
| 20260905153046 | 28 | 326 | 1.6 | 11.3 | 0.00 | 0.00 | 0.00 | 7 | 1015.6 |
| 20260905152546 | 28 | 111 | 1.6 | 8.0 | 0.00 | 0.00 | 0.00 | 4 | 1015.7 |
| 20260905152046 | 28 | 89 | 1.6 | 11.3 | 0.00 | 0.00 | 0.00 | 12 | 1015.9 |
| 20260905151547 | 28 | 259 | 1.6 | 11.3 | 0.00 | 0.00 | 0.00 | 1 | 1015.9 |
| 20260905151047 | 27 | 331 | 3.2 | 11.3 | 0.00 | 0.00 | 0.00 | 1 | 1015.8 |
| 20260905150546 | 27 | 166 | 3.2 | 11.3 | 0.00 | 0.00 | 0.00 | 1 | 1015.8 |
| 20260905150046 | 27 | 179 | 3.2 | 12.9 | 0.00 | 0.00 | 0.00 | 1 | 1015.8 |
| 20260905145546 | 26 | 115 | 3.2 | 12.9 | 0.00 | 0.00 | 0.00 | 1 | 1015.8 |
| 20260905145046 | 26 | 130 | 3.2 | 11.3 | 0.00 | 0.00 | 0.00 | 1 | 1015.7 |
| 20260905144546 | 26 | 294 | 3.2 | 11.3 | 0.00 | 0.00 | 0.00 | 1 | 1015.8 |
| 20260905144045 | 25 | 9 | 3.2 | 11.3 | 0.00 | 0.00 | 0.00 | 1 | 1015.7 |
| 20260905143546 | 25 | 355 | 3.2 | 11.3 | 0.00 | 0.00 | 0.00 | 1 | 1015.8 |
| 20260905143046 | 25 | 269 | 3.2 | 9.7 | 0.00 | 0.00 | 0.00 | 1 | 1015.7 |
| 20260905142546 | 25 | 110 | 4.8 | 9.7 | 0.00 | 0.00 | 0.00 | 1 | 1015.8 |
| 20260905142044 | 25 | 350 | 3.2 | 12.9 | 0.00 | 0.00 | 0.00 | 1 | 1016.0 |
| 20260905141544 | 25 | 17 | 3.2 | 12.9 | 0.00 | 0.00 | 0.00 | 1 | 1016.0 |
| 20260905141044 | 25 | 215 | 3.2 | 12.9 | 0.00 | 0.00 | 0.00 | 1 | 1016.0 |
| 20260905140544 | 24 | 34 | 4.8 | 16.1 | 0.00 | 0.00 | 0.00 | 1 | 1016.1 |
| 20260905140041 | 24 | 9 | 3.2 | 16.1 | 0.00 | 0.00 | 0.00 | 1 | 1016.1 |
| 20260905135545 | 24 | 238 | 3.2 | 12.9 | 0.00 | 0.00 | 0.00 | 1 | 1016.0 |
| 20260905135541 | 24 | 284 | 1.6 | 9.7 | 0.00 | 0.00 | 0.00 | 1 | 1016.0 |
| 20260905134545 | 24 | 135 | 3.2 | 12.9 | 0.00 | 0.00 | 0.00 | 1 | 1015.9 |
| 20260905134541 | 24 | 20 | 3.2 | 12.9 | 0.00 | 0.00 | 0.00 | 1 | 1016.0 |
| 20260905133541 | 24 | 355 | 4.8 | 12.9 | 0.00 | 0.00 | 0.00 | 1 | 1015.9 |
| 20260905133041 | 24 | 320 | 3.2 | 12.9 | 0.00 | 0.00 | 0.00 | 1 | 1016.0 |
| 20260905132541 | 24 | 12 | 3.2 | 11.3 | 0.00 | 0.00 | 0.00 | 1 | 1015.9 |
| 20260905132042 | 24 | 39 | 3.2 | 11.3 | 0.00 | 0.00 | 0.00 | 1 | 1015.8 |
| 20260905131542 | 24 | 22 | 4.8 | 19.3 | 0.00 | 0.00 | 0.00 | 1 | 1015.7 |
| 20260905131044 | 24 | 350 | 6.4 | 20.9 | 0.00 | 0.00 | 0.00 | 1 | 1015.6 |
| 20260905131040 | 24 | 77 | 6.4 | 20.9 | 0.00 | 0.00 | 0.00 | 1 | 1015.7 |
| 20260905130039 | 24 | 89 | 4.8 | 14.5 | 0.00 | 0.00 | 0.00 | 1 | 1015.8 |
| 20260905125540 | 23 | 15 | 6.4 | 14.5 | 0.00 | 0.00 | 0.00 | 1 | 1015.8 |
| 20260905125043 | 23 | 89 | 0.0 | 4.8 | 0.00 | 0.00 | 0.00 | 1 | 1015.6 |
| 20260905125039 | 23 | 349 | 3.2 | 14.5 | 0.00 | 0.00 | 0.00 | 1 | 1015.7 |
| 20260905124039 | 23 | 169 | 0.0 | 0.0 | 0.00 | 0.00 | 0.00 | 1 | 1015.2 |
| 20260905123539 | 23 | 169 | 0.0 | 0.0 | 0.00 | 0.00 | 0.00 | 1 | 1015.1 |
| 20260905123039 | 23 | 169 | 0.0 | 0.0 | 0.00 | 0.00 | 0.00 | 1 | 1015.1 |
| 20260905122539 | 23 | 169 | 0.0 | 0.0 | 0.00 | 0.00 | 0.00 | 1 | 1015.0 |
| 20260905122039 | 23 | 169 | 0.0 | 0.0 | 0.00 | 0.00 | 0.00 | 1 | 1015.1 |
| 20260905121543 | 23 | 169 | 0.0 | 1.6 | 0.00 | 0.00 | 0.00 | 1 | 1015.0 |
| 20260905121539 | 23 | 169 | 0.0 | 1.6 | 0.00 | 0.00 | 0.00 | 1 | 1015.0 |
| 20260905120539 | 23 | 169 | 0.0 | 0.0 | 0.00 | 0.00 | 0.00 | 1 | 1014.8 |
| 20260905120043 | 23 | 169 | 0.0 | 3.2 | 0.00 | 0.00 | 0.00 | 1 | 1014.9 |
| 20260905120039 | 23 | 169 | 0.0 | 1.6 | 0.00 | 0.00 | 0.00 | 1 | 1014.8 |
| 20260905115039 | 23 | 169 | 1.6 | 3.2 | 0.00 | 0.00 | 0.00 | 1 | 1014.8 |
| 20260905114539 | 23 | 169 | 0.0 | 3.2 | 0.00 | 0.00 | 0.00 | 1 | 1014.9 |
| 20260905114039 | 23 | 169 | 0.0 | 3.2 | 0.00 | 0.00 | 0.00 | 1 | 1015.0 |
| 20260905113539 | 23 | 169 | 0.0 | 3.2 | 0.00 | 0.00 | 0.00 | 1 | 1015.0 |
| 20260905113043 | 23 | 169 | 0.0 | 0.0 | 0.00 | 0.00 | 0.00 | 1 | 1014.8 |
| 20260905113039 | 23 | 169 | 0.0 | 0.0 | 0.00 | 0.00 | 0.00 | 1 | 1015.0 |
| 20260905112037 | 23 | 169 | 0.0 | 1.6 | 0.00 | 0.00 | 0.00 | 1 | 1014.9 |
| 20260905111537 | 23 | 169 | 0.0 | 1.6 | 0.00 | 0.00 | 0.00 | 1 | 1014.7 |
| 20260905111037 | 23 | 169 | 0.0 | 0.0 | 0.00 | 0.00 | 0.00 | 1 | 1014.7 |
| 20260905110537 | 23 | 169 | 0.0 | 0.0 | 0.00 | 0.00 | 0.00 | 1 | 1014.6 |
| 20260905110038 | 23 | 169 | 0.0 | 0.0 | 0.00 | 0.00 | 0.00 | 1 | 1014.5 |
| 20260905105538 | 23 | 169 | 0.0 | 0.0 | 0.00 | 0.00 | 0.00 | 1 | 1014.5 |
| 20260905105037 | 23 | 169 | 0.0 | 0.0 | 0.00 | 0.00 | 0.00 | 1 | 1014.6 |
| 20260905104536 | 23 | 169 | 0.0 | 0.0 | 0.00 | 0.00 | 0.00 | 1 | 1014.6 |
| 20260905104035 | 23 | 169 | 0.0 | 0.0 | 0.00 | 0.00 | 0.00 | 1 | 1014.6 |
| 20260905103540 | 23 | 169 | 0.0 | 0.0 | 0.00 | 0.00 | 0.00 | 1 | 1014.6 |
| 20260905103535 | 23 | 169 | 0.0 | 0.0 | 0.00 | 0.00 | 0.00 | 1 | 1014.5 |
| 20260905102534 | 23 | 169 | 0.0 | 0.0 | 0.00 | 0.00 | 0.00 | 1 | 1014.6 |
| 20260905102032 | 23 | 169 | 0.0 | 1.6 | 0.00 | 0.00 | 0.00 | 1 | 1014.6 |
| 20260905101539 | 23 | 169 | 0.0 | 3.2 | 0.00 | 0.00 | 0.00 | 1 | 1014.6 |
| 20260905101531 | 23 | 169 | 0.0 | 3.2 | 0.00 | 0.00 | 0.00 | 1 | 1014.6 |
| 20260905101031 | 23 | 169 | 0.0 | 3.2 | 0.00 | 0.00 | 0.00 | 1 | 1014.7 |
| 20260905100642 | 23 | 169 | 0.0 | 3.2 | 0.00 | 0.00 | 0.00 | 1 | 1014.6 |
| 20260905100531 | 23 | 169 | 0.0 | 0.0 | 0.00 | 0.00 | 0.00 | 1 | 1014.6 |
| 20260905095029 | 23 | 169 | 0.0 | 3.2 | 0.00 | 0.00 | 0.00 | 1 | 1014.7 |
| 20260905094530 | 23 | 169 | 0.0 | 0.0 | 0.00 | 0.00 | 0.00 | 1 | 1014.6 |
| 20260905094029 | 23 | 169 | 0.0 | 0.0 | 0.00 | 0.00 | 0.00 | 1 | 1014.6 |
| 20260905093529 | 23 | 169 | 0.0 | 0.0 | 0.00 | 0.00 | 0.00 | 1 | 1014.6 |
| 20260905093029 | 23 | 169 | 0.0 | 0.0 | 0.00 | 0.00 | 0.00 | 1 | 1014.5 |
| 20260905092529 | 23 | 169 | 0.0 | 0.0 | 0.00 | 0.00 | 0.00 | 1 | 1014.4 |
| 20260905092029 | 23 | 169 | 0.0 | 0.0 | 0.00 | 0.00 | 0.00 | 1 | 1014.4 |
| 20260905091531 | 23 | 169 | 0.0 | 0.0 | 0.00 | 0.00 | 0.00 | 1 | 1014.4 |
| 20260905091527 | 23 | 169 | 0.0 | 0.0 | 0.00 | 0.00 | 0.00 | 1 | 1014.3 |
| 20260905090527 | 23 | 169 | 0.0 | 0.0 | 0.00 | 0.00 | 0.00 | 1 | 1014.3 |
| 20260905090027 | 23 | 169 | 0.0 | 0.0 | 0.00 | 0.00 | 0.00 | 1 | 1014.2 |
| 20260905085527 | 23 | 169 | 0.0 | 0.0 | 0.00 | 0.00 | 0.00 | 1 | 1014.2 |
| 20260905085031 | 23 | 169 | 0.0 | 0.0 | 0.00 | 0.00 | 0.00 | 1 | 1014.2 |
| 20260905085027 | 23 | 169 | 0.0 | 0.0 | 0.00 | 0.00 | 0.00 | 1 | 1014.2 |
| 20260905084027 | 23 | 169 | 0.0 | 0.0 | 0.00 | 0.00 | 0.00 | 1 | 1014.1 |
| 20260905083528 | 23 | 169 | 0.0 | 0.0 | 0.00 | 0.00 | 0.00 | 1 | 1014.1 |
| 20260905083026 | 23 | 169 | 0.0 | 0.0 | 0.00 | 0.00 | 0.00 | 1 | 1014.0 |
| 20260905082525 | 23 | 169 | 0.0 | 0.0 | 0.00 | 0.00 | 0.00 | 1 | 1014.0 |
| 20260905082025 | 23 | 169 | 0.0 | 0.0 | 0.00 | 0.00 | 0.00 | 1 | 1014.0 |
| 20260905081529 | 23 | 169 | 0.0 | 0.0 | 0.00 | 0.00 | 0.00 | 1 | 1014.0 |
| 20260905081525 | 23 | 169 | 0.0 | 0.0 | 0.00 | 0.00 | 0.00 | 1 | 1014.0 |
| 20260905080525 | 23 | 169 | 0.0 | 0.0 | 0.00 | 0.00 | 0.00 | 1 | 1014.0 |
| 20260905080025 | 23 | 169 | 0.0 | 0.0 | 0.00 | 0.00 | 0.00 | 1 | 1014.0 |
| 20260905075529 | 24 | 169 | 0.0 | 0.0 | 0.00 | 0.00 | 0.00 | 1 | 1013.9 |
| 20260905075525 | 23 | 169 | 0.0 | 0.0 | 0.00 | 0.00 | 0.00 | 1 | 1014.0 |
| 20260905074524 | 24 | 169 | 0.0 | 0.0 | 0.00 | 0.00 | 0.00 | 1 | 1014.0 |
| 20260905074025 | 24 | 169 | 0.0 | 0.0 | 0.00 | 0.00 | 0.00 | 1 | 1014.0 |
| 20260905073525 | 24 | 169 | 0.0 | 0.0 | 0.00 | 0.00 | 0.00 | 1 | 1014.0 |
| 20260905073025 | 24 | 169 | 0.0 | 0.0 | 0.00 | 0.00 | 0.00 | 1 | 1013.9 |
| 20260905072524 | 24 | 169 | 0.0 | 0.0 | 0.00 | 0.00 | 0.00 | 1 | 1014.0 |
| 20260905072025 | 24 | 169 | 0.0 | 0.0 | 0.00 | 0.00 | 0.00 | 1 | 1014.1 |
| 20260905071525 | 24 | 169 | 0.0 | 0.0 | 0.00 | 0.00 | 0.00 | 1 | 1014.1 |
| 20260905071024 | 24 | 169 | 0.0 | 0.0 | 0.00 | 0.00 | 0.00 | 1 | 1014.1 |
| 20260905070529 | 24 | 169 | 0.0 | 0.0 | 0.00 | 0.00 | 0.00 | 1 | 1014.3 |
| 20260905070524 | 24 | 169 | 0.0 | 0.0 | 0.00 | 0.00 | 0.00 | 1 | 1014.2 |
| 20260905065524 | 24 | 169 | 0.0 | 0.0 | 0.00 | 0.00 | 0.00 | 1 | 1014.3 |
| 20260905065028 | 24 | 169 | 0.0 | 0.0 | 0.00 | 0.00 | 0.00 | 1 | 1014.4 |
| 20260905065024 | 24 | 169 | 0.0 | 0.0 | 0.00 | 0.00 | 0.00 | 1 | 1014.3 |
| 20260905064627 | 24 | 169 | 0.0 | 0.0 | 0.00 | 0.00 | 0.00 | 1 | 1014.5 |
| 20260905063522 | 24 | 169 | 0.0 | 0.0 | 0.00 | 0.00 | 0.00 | 1 | 1014.5 |
| 20260905063022 | 24 | 169 | 0.0 | 0.0 | 0.00 | 0.00 | 0.00 | 1 | 1014.5 |
| 20260905062522 | 24 | 169 | 0.0 | 0.0 | 0.00 | 0.00 | 0.00 | 1 | 1014.6 |
| 20260905062026 | 24 | 169 | 0.0 | 0.0 | 0.00 | 0.00 | 0.00 | 1 | 1014.7 |
| 20260905062022 | 24 | 169 | 0.0 | 0.0 | 0.00 | 0.00 | 0.00 | 1 | 1014.6 |
| 20260905061626 | 25 | 169 | 0.0 | 0.0 | 0.00 | 0.00 | 0.00 | 1 | 1014.7 |
| 20260905060520 | 25 | 169 | 0.0 | 0.0 | 0.00 | 0.00 | 0.00 | 1 | 1014.7 |
| 20260905060020 | 25 | 169 | 0.0 | 0.0 | 0.00 | 0.00 | 0.00 | 1 | 1014.8 |
| 20260905055520 | 25 | 169 | 0.0 | 0.0 | 0.00 | 0.00 | 0.00 | 1 | 1014.8 |
| 20260905055020 | 25 | 169 | 0.0 | 0.0 | 0.00 | 0.00 | 0.00 | 1 | 1014.7 |
| 20260905054527 | 25 | 169 | 0.0 | 0.0 | 0.00 | 0.00 | 0.00 | 1 | 1014.6 |
| 20260905054521 | 25 | 169 | 0.0 | 0.0 | 0.00 | 0.00 | 0.00 | 1 | 1014.8 |
| 20260905054021 | 25 | 169 | 0.0 | 0.0 | 0.00 | 0.00 | 0.00 | 1 | 1014.8 |
| 20260905053521 | 25 | 169 | 0.0 | 0.0 | 0.00 | 0.00 | 0.00 | 1 | 1014.8 |
| 20260905053021 | 25 | 169 | 0.0 | 0.0 | 0.00 | 0.00 | 0.00 | 1 | 1014.7 |
| 20260905052021 | 25 | 169 | 0.0 | 0.0 | 0.00 | 0.00 | 0.00 | 1 | 1014.6 |
| 20260905051521 | 25 | 169 | 0.0 | 0.0 | 0.00 | 0.00 | 0.00 | 1 | 1014.7 |
| 20260905051021 | 25 | 169 | 0.0 | 0.0 | 0.00 | 0.00 | 0.00 | 1 | 1014.9 |
| 20260905050520 | 25 | 169 | 0.0 | 0.0 | 0.00 | 0.00 | 0.00 | 1 | 1014.8 |
| 20260905050024 | 25 | 169 | 0.0 | 0.0 | 0.00 | 0.00 | 0.00 | 1 | 1015.0 |
| 20260905050020 | 25 | 169 | 0.0 | 0.0 | 0.00 | 0.00 | 0.00 | 1 | 1014.9 |
| 20260905045020 | 25 | 169 | 0.0 | 0.0 | 0.00 | 0.00 | 0.00 | 1 | 1015.0 |
| 20260905044520 | 25 | 169 | 0.0 | 0.0 | 0.00 | 0.00 | 0.00 | 1 | 1015.0 |
| 20260905044025 | 25 | 169 | 0.0 | 0.0 | 0.00 | 0.00 | 0.00 | 1 | 1015.0 |
| 20260905044021 | 25 | 169 | 0.0 | 0.0 | 0.00 | 0.00 | 0.00 | 1 | 1015.0 |
| 20260905043020 | 25 | 169 | 0.0 | 0.0 | 0.00 | 0.00 | 0.00 | 1 | 1015.0 |
| 20260905042522 | 25 | 169 | 0.0 | 0.0 | 0.00 | 0.00 | 0.00 | 1 | 1015.1 |
| 20260905042518 | 26 | 169 | 0.0 | 0.0 | 0.00 | 0.00 | 0.00 | 1 | 1015.2 |
| 20260905041518 | 26 | 169 | 0.0 | 0.0 | 0.00 | 0.00 | 0.00 | 1 | 1015.2 |
| 20260905041018 | 26 | 169 | 0.0 | 0.0 | 0.00 | 0.00 | 0.00 | 1 | 1015.3 |
| 20260905040522 | 26 | 169 | 0.0 | 0.0 | 0.00 | 0.00 | 0.00 | 1 | 1015.2 |
| 20260905040518 | 26 | 169 | 0.0 | 0.0 | 0.00 | 0.00 | 0.00 | 1 | 1015.3 |
| 20260905035516 | 26 | 169 | 0.0 | 0.0 | 0.00 | 0.00 | 0.00 | 1 | 1015.2 |
| 20260905035021 | 26 | 169 | 0.0 | 0.0 | 0.00 | 0.00 | 0.00 | 1 | 1015.2 |
| 20260905035016 | 26 | 169 | 0.0 | 0.0 | 0.00 | 0.00 | 0.00 | 1 | 1015.2 |
| 20260905034016 | 26 | 169 | 0.0 | 0.0 | 0.00 | 0.00 | 0.00 | 1 | 1015.4 |
| 20260905033516 | 26 | 169 | 0.0 | 0.0 | 0.00 | 0.00 | 0.00 | 1 | 1015.3 |
| 20260905033016 | 26 | 169 | 0.0 | 0.0 | 0.00 | 0.00 | 0.00 | 1 | 1015.3 |
| 20260905032516 | 26 | 169 | 0.0 | 0.0 | 0.00 | 0.00 | 0.00 | 1 | 1015.3 |
| 20260905032016 | 26 | 169 | 0.0 | 0.0 | 0.00 | 0.00 | 0.00 | 1 | 1015.4 |
| 20260905031515 | 26 | 169 | 0.0 | 0.0 | 0.00 | 0.00 | 0.00 | 1 | 1015.5 |
| 20260905031018 | 26 | 169 | 0.0 | 0.0 | 0.00 | 0.00 | 0.00 | 1 | 1015.2 |
| 20260905031014 | 26 | 169 | 0.0 | 0.0 | 0.00 | 0.00 | 0.00 | 1 | 1015.4 |
| 20260905030014 | 26 | 169 | 0.0 | 0.0 | 0.00 | 0.00 | 0.00 | 1 | 1015.1 |
| 20260905025514 | 26 | 169 | 0.0 | 0.0 | 0.00 | 0.00 | 0.00 | 1 | 1015.2 |
| 20260905025014 | 26 | 169 | 0.0 | 0.0 | 0.00 | 0.00 | 0.00 | 1 | 1015.1 |
| 20260905024518 | 26 | 169 | 0.0 | 0.0 | 0.00 | 0.00 | 0.00 | 1 | 1015.0 |
| 20260905024514 | 26 | 169 | 0.0 | 0.0 | 0.00 | 0.00 | 0.00 | 1 | 1015.1 |
| 20260905023514 | 26 | 169 | 0.0 | 0.0 | 0.00 | 0.00 | 0.00 | 1 | 1015.0 |
| 20260905023014 | 26 | 169 | 0.0 | 0.0 | 0.00 | 0.00 | 0.00 | 1 | 1014.9 |
| 20260905022513 | 27 | 169 | 0.0 | 0.0 | 0.00 | 0.00 | 0.00 | 1 | 1014.9 |
| 20260905022011 | 27 | 169 | 0.0 | 0.0 | 0.00 | 0.00 | 0.00 | 1 | 1014.9 |
| 20260905021511 | 27 | 169 | 0.0 | 0.0 | 0.00 | 0.00 | 0.00 | 1 | 1014.9 |
| 20260905021011 | 27 | 169 | 0.0 | 0.0 | 0.00 | 0.00 | 0.00 | 1 | 1015.0 |
| 20260905020513 | 27 | 169 | 0.0 | 0.0 | 0.00 | 0.00 | 0.00 | 1 | 1015.0 |
| 20260905020016 | 27 | 169 | 0.0 | 0.0 | 0.00 | 0.00 | 0.00 | 1 | 1015.0 |
| 20260905020012 | 27 | 169 | 0.0 | 0.0 | 0.00 | 0.00 | 0.00 | 1 | 1015.0 |
| 20260905015621 | 27 | 169 | 0.0 | 0.0 | 0.00 | 0.00 | 0.00 | 1 | 1014.9 |
| 20260905015617 | 27 | 169 | 0.0 | 0.0 | 0.00 | 0.00 | 0.00 | 1 | 1014.9 |
| 20260905015223 | 27 | 169 | 0.0 | 0.0 | 0.00 | 0.00 | 0.00 | 1 | 1014.9 |
| 20260905014512 | 27 | 169 | 0.0 | 0.0 | 0.00 | 0.00 | 0.00 | 1 | 1014.9 |
| 20260905013009 | 27 | 169 | 0.0 | 0.0 | 0.00 | 0.00 | 0.00 | 1 | 1014.8 |
| 20260905012510 | 27 | 169 | 0.0 | 0.0 | 0.00 | 0.00 | 0.00 | 1 | 1014.8 |
| 20260905012009 | 27 | 169 | 0.0 | 0.0 | 0.00 | 0.00 | 0.00 | 1 | 1014.7 |
| 20260905011509 | 27 | 169 | 0.0 | 0.0 | 0.00 | 0.00 | 0.00 | 1 | 1014.7 |
| 20260905011009 | 27 | 169 | 0.0 | 0.0 | 0.00 | 0.00 | 0.00 | 1 | 1014.7 |
| 20260905010509 | 27 | 169 | 0.0 | 0.0 | 0.00 | 0.00 | 0.00 | 1 | 1014.6 |
| 20260905010010 | 27 | 169 | 0.0 | 0.0 | 0.00 | 0.00 | 0.00 | 1 | 1014.6 |
| 20260905005510 | 28 | 169 | 0.0 | 0.0 | 0.00 | 0.00 | 0.00 | 1 | 1014.5 |
| 20260905005010 | 28 | 169 | 0.0 | 0.0 | 0.00 | 0.00 | 0.00 | 1 | 1014.6 |
| 20260905004509 | 28 | 169 | 0.0 | 0.0 | 0.00 | 0.00 | 0.00 | 1 | 1014.5 |
| 20260905004010 | 28 | 169 | 0.0 | 0.0 | 0.00 | 0.00 | 0.00 | 1 | 1014.5 |
| 20260905003510 | 28 | 169 | 0.0 | 0.0 | 0.00 | 0.00 | 0.00 | 1 | 1014.5 |
| 20260905003009 | 28 | 169 | 0.0 | 0.0 | 0.00 | 0.00 | 0.00 | 1 | 1014.5 |
| 20260905002509 | 28 | 169 | 0.0 | 0.0 | 0.00 | 0.00 | 0.00 | 1 | 1014.4 |
| 20260905002013 | 29 | 169 | 0.0 | 0.0 | 0.00 | 0.00 | 0.00 | 1 | 1014.4 |
| 20260905002009 | 28 | 169 | 0.0 | 0.0 | 0.00 | 0.00 | 0.00 | 1 | 1014.4 |
| 20260905001615 | 29 | 169 | 0.0 | 0.0 | 0.00 | 0.00 | 0.00 | 1 | 1014.4 |
| 20260905000514 | 30 | 169 | 0.0 | 0.0 | 0.00 | 0.00 | 0.00 | 1 | 1014.3 |
| 20260905000510 | 30 | 169 | 0.0 | 0.0 | 0.00 | 0.00 | 0.00 | 1 | 1014.4 |
| 20260904235510 | 30 | 169 | 0.0 | 0.0 | 0.00 | 0.00 | 0.00 | 1 | 1014.4 |
| 20260904235009 | 31 | 169 | 0.0 | 0.0 | 0.00 | 0.00 | 0.00 | 1 | 1014.4 |
| 20260904234509 | 31 | 169 | 0.0 | 0.0 | 0.00 | 0.00 | 0.00 | 1 | 1014.3 |
| 20260904234009 | 31 | 169 | 0.0 | 0.0 | 0.00 | 0.00 | 0.00 | 1 | 1014.3 |
| 20260904233509 | 32 | 169 | 0.0 | 0.0 | 0.00 | 0.00 | 0.00 | 1 | 1014.3 |
| 20260904233010 | 32 | 169 | 0.0 | 0.0 | 0.00 | 0.00 | 0.00 | 1 | 1014.3 |
| 20260904232510 | 33 | 169 | 0.0 | 0.0 | 0.00 | 0.00 | 0.00 | 7 | 1014.3 |
| 20260904232009 | 33 | 169 | 0.0 | 0.0 | 0.00 | 0.00 | 0.00 | 15 | 1014.3 |
| 20260904231509 | 33 | 169 | 0.0 | 0.0 | 0.00 | 0.00 | 0.00 | 22 | 1014.2 |
| 20260904231013 | 35 | 169 | 0.0 | 0.0 | 0.00 | 0.00 | 0.00 | 33 | 1014.2 |
| 20260904231008 | 33 | 169 | 0.0 | 0.0 | 0.00 | 0.00 | 0.00 | 21 | 1014.2 |
| 20260904230507 | 34 | 169 | 0.0 | 0.0 | 0.00 | 0.00 | 0.00 | 24 | 1014.2 |
| 20260904225507 | 35 | 169 | 0.0 | 0.0 | 0.00 | 0.00 | 0.00 | 36 | 1014.2 |
| 20260904225008 | 35 | 169 | 0.0 | 0.0 | 0.00 | 0.00 | 0.00 | 23 | 1014.3 |
| 20260904224507 | 35 | 169 | 0.0 | 0.0 | 0.00 | 0.00 | 0.00 | 27 | 1014.3 |
| 20260904224009 | 35 | 169 | 0.0 | 0.0 | 0.00 | 0.00 | 0.00 | 28 | 1014.3 |
| 20260904224005 | 35 | 169 | 0.0 | 0.0 | 0.00 | 0.00 | 0.00 | 34 | 1014.3 |
| 20260904223005 | 35 | 169 | 0.0 | 1.6 | 0.00 | 0.00 | 0.00 | 36 | 1014.3 |
| 20260904222505 | 35 | 169 | 0.0 | 6.4 | 0.00 | 0.00 | 0.00 | 44 | 1014.3 |
| 20260904222005 | 35 | 169 | 0.0 | 6.4 | 0.00 | 0.00 | 0.00 | 49 | 1014.3 |
| 20260904221509 | 36 | 217 | 0.0 | 4.8 | 0.00 | 0.00 | 0.00 | 47 | 1014.3 |
| 20260904221505 | 36 | 216 | 0.0 | 3.2 | 0.00 | 0.00 | 0.00 | 47 | 1014.3 |
| 20260904220505 | 36 | 217 | 0.0 | 4.8 | 0.00 | 0.00 | 0.00 | 52 | 1014.3 |
| 20260904220005 | 36 | 138 | 0.0 | 1.6 | 0.00 | 0.00 | 0.00 | 51 | 1014.4 |
| 20260904215503 | 36 | 138 | 0.0 | 4.8 | 0.00 | 0.00 | 0.00 | 47 | 1014.5 |
| 20260904215001 | 36 | 138 | 0.0 | 4.8 | 0.00 | 0.00 | 0.00 | 51 | 1014.5 |
| 20260904214459 | 36 | 134 | 1.6 | 3.2 | 0.00 | 0.00 | 0.00 | 52 | 1014.5 |
| 20260904213959 | 36 | 134 | 1.6 | 3.2 | 0.00 | 0.00 | 0.00 | 53 | 1014.5 |
| 20260904213459 | 36 | 234 | 1.6 | 4.8 | 0.00 | 0.00 | 0.00 | 53 | 1014.5 |
| 20260904212959 | 36 | 234 | 1.6 | 4.8 | 0.00 | 0.00 | 0.00 | 53 | 1014.6 |
| 20260904212459 | 36 | 178 | 1.6 | 4.8 | 0.00 | 0.00 | 0.00 | 53 | 1014.6 |
| 20260904211958 | 36 | 155 | 1.6 | 4.8 | 0.00 | 0.00 | 0.00 | 53 | 1014.5 |
| 20260904211457 | 36 | 122 | 1.6 | 4.8 | 0.00 | 0.00 | 0.00 | 53 | 1014.6 |
| 20260904210958 | 36 | 195 | 1.6 | 4.8 | 0.00 | 0.00 | 0.00 | 54 | 1014.7 |
| 20260904210457 | 36 | 197 | 1.6 | 4.8 | 0.00 | 0.00 | 0.00 | 54 | 1014.7 |
| 20260904205957 | 36 | 197 | 1.6 | 4.8 | 0.00 | 0.00 | 0.00 | 53 | 1014.8 |
| 20260904205457 | 36 | 225 | 1.6 | 6.4 | 0.00 | 0.00 | 0.00 | 54 | 1014.9 |